273  
ASUS41 KPHI 230812  
RWRPHI  
 
REGIONAL WEATHER ROUNDUP  
NATIONAL WEATHER SERVICE MOUNT HOLLY NJ  
400 AM EDT SAT JUL 23 2016  
 
NOTE: "FAIR" INDICATES FEW OR NO CLOUDS BELOW 12,000 FEET WITH NO  
SIGNIFICANT WEATHER AND/OR S TO VISIBILITY
.  
 
* = STATION DOES NOT REPORT PRECIPITATION (E.G. RAIN, SNOW, ETC.)  
OR FOG.
 
 
NJZ015>026-230900-  
SOUTHERN NEW JERSEY  
 
CITY SKY/WX TMP DP RH WIND PRES REMARKS
 
POMONA CLEAR 79 71 76 W9 29.87F  
WILDWOOD* CLEAR 79 73 82 W7 29.90S  
MILLVILLE CLEAR 77 71 82 W6 29.89S  
WRIGHTSTOWN CLEAR 74 71 87 SW5 29.84S  
MOUNT HOLLY CLEAR 77 70 79 SW3 29.86S  
TRENTON CLEAR 76 67 73 W3 29.85S  
 

 
NJZ001>014-230900-  
NORTHERN NEW JERSEY  
 
CITY SKY/WX TMP DP RH WIND PRES REMARKS
 
SUSSEX CLEAR 67 66 97 CALM 29.87R  
ANDOVER* N/A 67 65 93 CALM 29.88S  
MORRISTOWN CLEAR 70 63 78 CALM 29.85S  
NEWARK PTCLDY 81 66 60 W8 29.82S  
TETERBORO CLEAR 82 63 52 W7 29.82R  
CALDWELL CLEAR 79 66 64 CALM 29.84S  
SOMERVILLE CLEAR 69 67 93 CALM 29.84R FOG  
ALLAIRE* CLEAR 77 70 79 SW7 29.86S  
TOMS RIVER* CLEAR 77 70 78 W7 29.86S  
 

 
PAZ043-044-047-054-055-060>062-066>071-230900-  
EASTERN PENNSYLVANIA  
 
CITY SKY/WX TMP DP RH WIND PRES REMARKS
 
PHILADELPHIA CLEAR 80 70 71 W9 29.87S  
NORTH PHILA CLEAR 77 68 73 W5 29.88S  
BLUE BELL* CLEAR 70 68 94 W3 29.88R  
DOYLESTOWN CLEAR 72 67 84 S3 29.87S  
QUAKERTOWN* CLEAR 79 68 69 CALM 29.90S  
PERKASIE* FAIR 72 68 88 NW5 29.90S  
POTTSTOWN CLEAR 73 67 81 CALM 29.90S  
LANCASTER CLEAR 71 67 87 W5 29.91S  
COATESVILLE CLEAR 75 68 78 W5 29.93S  
READING CLEAR 75 67 76 CALM 29.89R  
ALLENTOWN CLEAR 73 66 78 W5 29.89R  
MOUNT POCONO CLEAR 66 32 28 NW6 29.95S  
HAZLETON CLEAR 70 63 78 CALM 29.97S  
LEHIGHTON FAIR 64 63 94 CALM 29.90S FOG  
WILKES BARRE PTCLDY 72 63 73 CALM 29.90S  
 

 
DEZALL-MDZ008-012-015-019-020-230900-  
DELAWARE AND EASTERN MARYLAND  
 
CITY SKY/WX TMP DP RH WIND PRES REMARKS
 
WILMINGTON CLEAR 77 68 73 W6 29.90R  
DOVER CLEAR 79 74 86 W7 29.88F  
GEORGETOWN CLEAR 78 73 84 SW6 29.92R  
EASTON CLEAR 81 76 84 NW3 29.95S  
PATUXENT CLEAR 79 72 79 W9 29.92S  
OCEAN CITY CLEAR 78 76 93 W7 29.91S  
WALLOPS ISLAND FAIR 81 76 84 W6 29.93S  
CAMBRIDGE CLEAR 73 72 94 CALM 29.92R  
SALISBURY CLEAR 78 76 93 W5 29.92S  
 

 
PAZ001-021-NYZ056-072-MDZ011-DCZ001-230900-  
OTHER NEARBY LOCATIONS  
 
CITY SKY/WX TMP DP RH WIND PRES REMARKS
 
HARRISBURG CLEAR 76 71 85 NE3 29.90S  
STATE COLLEGE CLEAR 76 69 78 SW5 29.96S  
WILLIAMSPORT PTCLDY 72 64 76 CALM 29.89R  
BINGHAMTON CLEAR 71 61 70 W5 29.92S  
NEW YORK CITY CLEAR 82 64 54 NW6 29.86R  
BALTIMORE CLEAR 77 71 82 W6 29.92R  
WASHINGTON DC FAIR 81 74 79 S5 29.93S  
 

 
 
 
CLICK HERE TO GO TO PREVIOUS BULLETINS.

The Nexlab PA Page
The Nexlab NJ Page
The Nexlab DE Page
The Nexlab MD Page Main Text Page